﻿datum;grugatrasse_rüttenscheid_west;grugatrasse_ruhr_ost;huyssenallee_rüttenscheid_süd;huyssenallee_stadtkern_nord
01.01.2021 00:00;2;0;1;0
01.01.2021 01:00;2;0;0;0
01.01.2021 02:00;2;2;1;2
01.01.2021 03:00;0;1;0;0
01.01.2021 04:00;2;0;3;0
01.01.2021 05:00;1;0;0;0
01.01.2021 06:00;4;0;1;2
01.01.2021 07:00;2;0;1;3
01.01.2021 08:00;3;2;0;1
01.01.2021 09:00;11;9;2;2
01.01.2021 10:00;8;14;3;1
01.01.2021 11:00;26;42;2;2
01.01.2021 12:00;38;47;4;13
01.01.2021 13:00;65;55;7;21
01.01.2021 14:00;61;66;16;12
01.01.2021 15:00;77;72;10;13
01.01.2021 16:00;41;24;3;11
01.01.2021 17:00;18;7;7;7
01.01.2021 18:00;10;4;4;10
01.01.2021 19:00;8;2;1;4
01.01.2021 20:00;1;3;2;3
01.01.2021 21:00;3;3;2;4
01.01.2021 22:00;2;2;2;2
01.01.2021 23:00;3;0;0;0
02.01.2021 00:00;1;0;0;0
02.01.2021 01:00;0;0;0;0
02.01.2021 02:00;0;0;0;0
02.01.2021 03:00;0;0;0;0
02.01.2021 04:00;0;0;1;0
02.01.2021 05:00;0;0;0;1
02.01.2021 06:00;4;2;1;3
02.01.2021 07:00;5;4;0;2
02.01.2021 08:00;6;6;3;5
02.01.2021 09:00;19;21;2;5
02.01.2021 10:00;33;39;6;8
02.01.2021 11:00;50;53;3;8
02.01.2021 12:00;66;70;17;20
02.01.2021 13:00;68;89;11;7
02.01.2021 14:00;86;90;11;15
02.01.2021 15:00;75;72;8;8
02.01.2021 16:00;58;33;5;7
02.01.2021 17:00;15;8;4;8
02.01.2021 18:00;18;5;2;6
02.01.2021 19:00;2;7;5;3
02.01.2021 20:00;1;0;2;3
02.01.2021 21:00;8;9;2;4
02.01.2021 22:00;2;2;1;0
02.01.2021 23:00;4;0;1;1
03.01.2021 00:00;3;1;0;1
03.01.2021 01:00;1;1;0;1
03.01.2021 02:00;1;0;0;0
03.01.2021 03:00;0;0;0;0
03.01.2021 04:00;0;0;1;0
03.01.2021 05:00;0;0;0;1
03.01.2021 06:00;3;2;1;0
03.01.2021 07:00;5;2;1;2
03.01.2021 08:00;4;8;1;2
03.01.2021 09:00;17;12;1;6
03.01.2021 10:00;30;41;3;5
03.01.2021 11:00;35;50;7;8
03.01.2021 12:00;55;59;9;11
03.01.2021 13:00;47;46;10;14
03.01.2021 14:00;60;62;9;10
03.01.2021 15:00;31;21;5;10
03.01.2021 16:00;42;16;6;10
03.01.2021 17:00;10;5;5;9
03.01.2021 18:00;7;6;9;7
03.01.2021 19:00;3;3;6;2
03.01.2021 20:00;2;3;5;5
03.01.2021 21:00;1;2;1;2
03.01.2021 22:00;1;1;1;3
03.01.2021 23:00;0;0;0;2
04.01.2021 00:00;1;0;0;0
04.01.2021 01:00;0;0;1;0
04.01.2021 02:00;0;0;0;0
04.01.2021 03:00;0;1;0;0
04.01.2021 04:00;0;0;1;0
04.01.2021 05:00;3;3;3;1
04.01.2021 06:00;26;1;7;10
04.01.2021 07:00;29;22;9;37
04.01.2021 08:00;25;10;7;24
04.01.2021 09:00;21;14;8;11
04.01.2021 10:00;9;8;10;11
04.01.2021 11:00;16;13;9;7
04.01.2021 12:00;21;24;8;13
04.01.2021 13:00;26;24;14;17
04.01.2021 14:00;31;24;7;13
04.01.2021 15:00;29;36;19;19
04.01.2021 16:00;31;40;27;16
04.01.2021 17:00;24;33;18;12
04.01.2021 18:00;8;13;14;7
04.01.2021 19:00;3;7;12;4
04.01.2021 20:00;6;9;3;3
04.01.2021 21:00;2;2;0;2
04.01.2021 22:00;4;5;4;1
04.01.2021 23:00;0;0;0;1
05.01.2021 00:00;0;0;0;1
05.01.2021 01:00;0;0;0;0
05.01.2021 02:00;0;0;0;0
05.01.2021 03:00;0;1;2;0
05.01.2021 04:00;0;0;0;1
05.01.2021 05:00;10;2;2;1
05.01.2021 06:00;39;6;9;16
05.01.2021 07:00;36;19;7;27
05.01.2021 08:00;24;13;7;26
05.01.2021 09:00;15;16;6;11
05.01.2021 10:00;14;19;5;5
05.01.2021 11:00;28;36;6;13
05.01.2021 12:00;40;21;9;13
05.01.2021 13:00;31;39;10;18
05.01.2021 14:00;26;37;15;14
05.01.2021 15:00;36;42;19;12
05.01.2021 16:00;24;46;23;20
05.01.2021 17:00;27;31;24;24
05.01.2021 18:00;14;22;20;10
05.01.2021 19:00;2;6;13;6
05.01.2021 20:00;5;2;1;1
05.01.2021 21:00;3;0;0;5
05.01.2021 22:00;0;1;1;0
05.01.2021 23:00;1;1;2;0
06.01.2021 00:00;0;0;0;1
06.01.2021 01:00;0;0;0;1
06.01.2021 02:00;1;0;0;0
06.01.2021 03:00;0;1;0;0
06.01.2021 04:00;0;0;0;3
06.01.2021 05:00;7;3;1;3
06.01.2021 06:00;29;4;8;14
06.01.2021 07:00;36;17;7;25
06.01.2021 08:00;36;17;11;25
06.01.2021 09:00;14;13;5;13
06.01.2021 10:00;21;27;7;11
06.01.2021 11:00;22;31;5;11
06.01.2021 12:00;36;24;9;13
06.01.2021 13:00;22;31;14;7
06.01.2021 14:00;34;23;14;19
06.01.2021 15:00;36;38;20;16
06.01.2021 16:00;38;63;20;14
06.01.2021 17:00;27;39;23;17
06.01.2021 18:00;18;29;11;5
06.01.2021 19:00;8;9;10;4
06.01.2021 20:00;4;5;4;2
06.01.2021 21:00;3;3;3;3
06.01.2021 22:00;4;3;1;0
06.01.2021 23:00;2;0;0;0
07.01.2021 00:00;0;1;1;0
07.01.2021 01:00;0;0;2;1
07.01.2021 02:00;0;0;0;0
07.01.2021 03:00;0;1;1;1
07.01.2021 04:00;0;0;0;1
07.01.2021 05:00;6;3;2;3
07.01.2021 06:00;24;5;10;6
07.01.2021 07:00;41;22;4;24
07.01.2021 08:00;25;16;0;34
07.01.2021 09:00;14;5;2;10
07.01.2021 10:00;8;12;5;7
07.01.2021 11:00;9;9;9;7
07.01.2021 12:00;17;4;9;15
07.01.2021 13:00;19;19;8;9
07.01.2021 14:00;18;20;7;11
07.01.2021 15:00;15;30;10;12
07.01.2021 16:00;15;19;17;19
07.01.2021 17:00;18;29;17;9
07.01.2021 18:00;10;13;18;12
07.01.2021 19:00;13;3;8;4
07.01.2021 20:00;4;3;5;2
07.01.2021 21:00;4;6;5;5
07.01.2021 22:00;1;5;1;1
07.01.2021 23:00;0;1;0;0
08.01.2021 00:00;0;0;0;0
08.01.2021 01:00;1;0;0;0
08.01.2021 02:00;0;0;0;0
08.01.2021 03:00;0;0;0;0
08.01.2021 04:00;0;1;0;1
08.01.2021 05:00;5;1;3;3
08.01.2021 06:00;21;4;7;7
08.01.2021 07:00;38;17;8;26
08.01.2021 08:00;18;10;6;26
08.01.2021 09:00;11;7;4;12
08.01.2021 10:00;13;14;3;13
08.01.2021 11:00;16;12;7;15
08.01.2021 12:00;29;25;7;13
08.01.2021 13:00;16;26;13;10
08.01.2021 14:00;27;34;10;17
08.01.2021 15:00;42;54;14;18
08.01.2021 16:00;36;33;20;14
08.01.2021 17:00;17;23;19;14
08.01.2021 18:00;8;12;14;12
08.01.2021 19:00;9;5;13;10
08.01.2021 20:00;13;4;9;7
08.01.2021 21:00;2;7;6;3
08.01.2021 22:00;2;0;0;0
08.01.2021 23:00;1;1;0;1
09.01.2021 00:00;0;2;1;0
09.01.2021 01:00;0;0;2;0
09.01.2021 02:00;2;1;0;1
09.01.2021 03:00;0;0;0;0
09.01.2021 04:00;1;0;0;0
09.01.2021 05:00;2;2;3;0
09.01.2021 06:00;3;3;2;1
09.01.2021 07:00;2;2;2;2
09.01.2021 08:00;5;7;3;7
09.01.2021 09:00;20;22;3;3
09.01.2021 10:00;24;29;2;6
09.01.2021 11:00;43;33;6;6
09.01.2021 12:00;47;31;15;18
09.01.2021 13:00;46;54;5;9
09.01.2021 14:00;31;21;12;9
09.01.2021 15:00;34;29;8;6
09.01.2021 16:00;31;27;7;6
09.01.2021 17:00;12;16;7;5
09.01.2021 18:00;11;10;8;8
09.01.2021 19:00;3;5;3;5
09.01.2021 20:00;3;2;5;5
09.01.2021 21:00;4;3;5;5
09.01.2021 22:00;1;0;1;1
09.01.2021 23:00;1;2;0;1
10.01.2021 00:00;1;0;0;0
10.01.2021 01:00;0;0;0;1
10.01.2021 02:00;1;0;0;1
10.01.2021 03:00;0;0;0;0
10.01.2021 04:00;1;1;0;1
10.01.2021 05:00;1;0;1;0
10.01.2021 06:00;4;4;0;3
10.01.2021 07:00;1;2;0;0
10.01.2021 08:00;5;5;1;3
10.01.2021 09:00;8;16;2;4
10.01.2021 10:00;15;42;2;3
10.01.2021 11:00;54;52;4;14
10.01.2021 12:00;53;52;4;8
10.01.2021 13:00;63;65;7;11
10.01.2021 14:00;71;82;7;14
10.01.2021 15:00;79;43;11;10
10.01.2021 16:00;41;31;11;13
10.01.2021 17:00;30;18;9;12
10.01.2021 18:00;11;9;7;7
10.01.2021 19:00;4;3;2;5
10.01.2021 20:00;6;3;1;3
10.01.2021 21:00;5;3;4;2
10.01.2021 22:00;2;0;1;1
10.01.2021 23:00;1;0;0;0
11.01.2021 00:00;0;0;0;1
11.01.2021 01:00;0;0;1;0
11.01.2021 02:00;0;0;0;0
11.01.2021 03:00;0;0;0;0
11.01.2021 04:00;0;1;0;1
11.01.2021 05:00;14;1;6;4
11.01.2021 06:00;42;7;7;10
11.01.2021 07:00;51;25;14;45
11.01.2021 08:00;33;16;9;25
11.01.2021 09:00;21;14;6;19
11.01.2021 10:00;18;14;10;11
11.01.2021 11:00;16;14;5;13
11.01.2021 12:00;25;14;11;17
11.01.2021 13:00;19;36;17;19
11.01.2021 14:00;22;32;28;25
11.01.2021 15:00;34;50;16;14
11.01.2021 16:00;39;56;15;22
11.01.2021 17:00;38;37;16;20
11.01.2021 18:00;10;26;16;9
11.01.2021 19:00;9;10;8;4
11.01.2021 20:00;5;7;3;5
11.01.2021 21:00;4;4;0;3
11.01.2021 22:00;2;3;2;1
11.01.2021 23:00;0;0;1;1
12.01.2021 00:00;0;0;0;1
12.01.2021 01:00;0;0;0;0
12.01.2021 02:00;0;0;1;0
12.01.2021 03:00;1;2;0;0
12.01.2021 04:00;1;2;0;0
12.01.2021 05:00;1;1;3;4
12.01.2021 06:00;23;6;2;8
12.01.2021 07:00;28;17;7;28
12.01.2021 08:00;25;10;5;12
12.01.2021 09:00;5;7;5;9
12.01.2021 10:00;4;3;3;6
12.01.2021 11:00;10;11;1;10
12.01.2021 12:00;9;6;13;8
12.01.2021 13:00;10;10;9;8
12.01.2021 14:00;29;24;10;14
12.01.2021 15:00;52;29;15;14
12.01.2021 16:00;59;62;26;18
12.01.2021 17:00;37;36;21;16
12.01.2021 18:00;8;20;7;14
12.01.2021 19:00;8;14;10;5
12.01.2021 20:00;4;7;5;1
12.01.2021 21:00;3;4;5;4
12.01.2021 22:00;1;5;2;0
12.01.2021 23:00;0;0;0;4
13.01.2021 00:00;0;1;0;1
13.01.2021 01:00;0;0;1;0
13.01.2021 02:00;0;0;0;0
13.01.2021 03:00;0;1;0;0
13.01.2021 04:00;0;1;1;1
13.01.2021 05:00;7;1;3;3
13.01.2021 06:00;26;10;5;17
13.01.2021 07:00;47;19;12;45
13.01.2021 08:00;31;19;7;41
13.01.2021 09:00;17;19;6;15
13.01.2021 10:00;33;28;5;16
13.01.2021 11:00;28;46;7;17
13.01.2021 12:00;36;25;22;10
13.01.2021 13:00;27;30;12;18
13.01.2021 14:00;54;37;7;18
13.01.2021 15:00;48;56;15;18
13.01.2021 16:00;54;63;24;19
13.01.2021 17:00;40;40;19;15
13.01.2021 18:00;16;26;23;6
13.01.2021 19:00;12;11;11;8
13.01.2021 20:00;6;8;6;6
13.01.2021 21:00;1;1;0;6
13.01.2021 22:00;1;2;2;0
13.01.2021 23:00;2;0;0;0
14.01.2021 00:00;0;0;1;0
14.01.2021 01:00;0;0;0;0
14.01.2021 02:00;0;0;0;0
14.01.2021 03:00;0;1;0;0
14.01.2021 04:00;0;0;1;1
14.01.2021 05:00;9;1;3;6
14.01.2021 06:00;34;6;5;9
14.01.2021 07:00;45;19;15;44
14.01.2021 08:00;36;19;4;37
14.01.2021 09:00;14;17;7;17
14.01.2021 10:00;18;16;7;11
14.01.2021 11:00;26;26;15;18
14.01.2021 12:00;36;40;12;21
14.01.2021 13:00;39;45;21;11
14.01.2021 14:00;38;50;13;20
14.01.2021 15:00;53;61;23;24
14.01.2021 16:00;65;68;32;30
14.01.2021 17:00;32;38;21;26
14.01.2021 18:00;17;25;28;10
14.01.2021 19:00;9;16;11;5
14.01.2021 20:00;5;4;7;3
14.01.2021 21:00;3;5;3;2
14.01.2021 22:00;5;3;1;0
14.01.2021 23:00;1;0;1;0
15.01.2021 00:00;2;1;0;0
15.01.2021 01:00;0;0;0;0
15.01.2021 02:00;0;0;0;0
15.01.2021 03:00;0;2;0;0
15.01.2021 04:00;0;0;1;1
15.01.2021 05:00;6;2;3;4
15.01.2021 06:00;35;8;5;15
15.01.2021 07:00;44;21;11;38
15.01.2021 08:00;25;21;3;22
15.01.2021 09:00;22;14;10;16
15.01.2021 10:00;14;18;3;4
15.01.2021 11:00;20;23;10;17
15.01.2021 12:00;24;27;25;15
15.01.2021 13:00;27;46;18;11
15.01.2021 14:00;33;46;17;22
15.01.2021 15:00;42;47;19;17
15.01.2021 16:00;39;61;25;21
15.01.2021 17:00;24;37;19;18
15.01.2021 18:00;23;21;15;17
15.01.2021 19:00;7;11;7;5
15.01.2021 20:00;6;2;4;6
15.01.2021 21:00;7;4;3;2
15.01.2021 22:00;3;3;3;1
15.01.2021 23:00;3;0;1;0
16.01.2021 00:00;0;0;0;3
16.01.2021 01:00;1;1;0;0
16.01.2021 02:00;0;0;0;0
16.01.2021 03:00;0;0;0;0
16.01.2021 04:00;1;0;2;1
16.01.2021 05:00;3;3;1;0
16.01.2021 06:00;5;1;2;2
16.01.2021 07:00;1;4;2;3
16.01.2021 08:00;3;5;3;8
16.01.2021 09:00;18;23;4;4
16.01.2021 10:00;25;35;6;9
16.01.2021 11:00;46;69;9;7
16.01.2021 12:00;68;85;10;10
16.01.2021 13:00;71;68;11;13
16.01.2021 14:00;53;58;9;18
16.01.2021 15:00;60;48;10;14
16.01.2021 16:00;38;38;7;5
16.01.2021 17:00;25;18;12;1
16.01.2021 18:00;7;7;2;9
16.01.2021 19:00;6;4;7;4
16.01.2021 20:00;2;4;4;2
16.01.2021 21:00;0;3;4;3
16.01.2021 22:00;3;2;0;0
16.01.2021 23:00;2;0;0;0
17.01.2021 00:00;0;1;0;1
17.01.2021 01:00;0;1;0;1
17.01.2021 02:00;0;0;0;1
17.01.2021 03:00;0;0;0;1
17.01.2021 04:00;0;0;0;0
17.01.2021 05:00;3;1;1;0
17.01.2021 06:00;2;1;1;1
17.01.2021 07:00;2;1;0;1
17.01.2021 08:00;2;1;0;2
17.01.2021 09:00;11;11;2;2
17.01.2021 10:00;7;8;0;1
17.01.2021 11:00;4;7;2;1
17.01.2021 12:00;5;8;3;3
17.01.2021 13:00;14;9;4;5
17.01.2021 14:00;13;14;5;5
17.01.2021 15:00;7;9;5;3
17.01.2021 16:00;8;9;3;5
17.01.2021 17:00;11;6;6;4
17.01.2021 18:00;4;4;2;3
17.01.2021 19:00;4;2;2;4
17.01.2021 20:00;1;2;3;4
17.01.2021 21:00;3;0;2;1
17.01.2021 22:00;2;2;0;1
17.01.2021 23:00;0;0;0;0
18.01.2021 00:00;3;0;0;0
18.01.2021 01:00;0;0;0;3
18.01.2021 02:00;2;0;0;1
18.01.2021 03:00;0;0;0;0
18.01.2021 04:00;0;1;1;3
18.01.2021 05:00;14;2;3;4
18.01.2021 06:00;34;7;9;16
18.01.2021 07:00;63;26;3;43
18.01.2021 08:00;33;15;10;33
18.01.2021 09:00;19;15;10;24
18.01.2021 10:00;21;18;7;8
18.01.2021 11:00;26;24;9;14
18.01.2021 12:00;26;25;12;8
18.01.2021 13:00;28;24;14;15
18.01.2021 14:00;31;43;13;14
18.01.2021 15:00;30;54;26;24
18.01.2021 16:00;44;66;23;23
18.01.2021 17:00;31;42;25;16
18.01.2021 18:00;12;31;18;9
18.01.2021 19:00;13;16;13;5
18.01.2021 20:00;5;4;5;2
18.01.2021 21:00;1;3;4;4
18.01.2021 22:00;3;2;1;2
18.01.2021 23:00;0;0;1;0
19.01.2021 00:00;0;0;0;1
19.01.2021 01:00;0;0;0;2
19.01.2021 02:00;0;0;0;0
19.01.2021 03:00;0;0;0;0
19.01.2021 04:00;0;0;0;2
19.01.2021 05:00;5;0;3;2
19.01.2021 06:00;24;3;3;6
19.01.2021 07:00;31;13;3;27
19.01.2021 08:00;21;14;3;15
19.01.2021 09:00;7;5;1;8
19.01.2021 10:00;3;2;2;2
19.01.2021 11:00;3;8;2;4
19.01.2021 12:00;4;5;7;4
19.01.2021 13:00;8;6;5;6
19.01.2021 14:00;10;10;7;11
19.01.2021 15:00;15;15;14;7
19.01.2021 16:00;20;37;19;14
19.01.2021 17:00;12;24;22;10
19.01.2021 18:00;10;14;12;8
19.01.2021 19:00;9;13;9;5
19.01.2021 20:00;7;3;2;3
19.01.2021 21:00;2;3;2;2
19.01.2021 22:00;5;4;2;0
19.01.2021 23:00;1;0;1;0
20.01.2021 00:00;0;0;0;0
20.01.2021 01:00;0;0;0;0
20.01.2021 02:00;0;0;0;0
20.01.2021 03:00;0;0;0;0
20.01.2021 04:00;0;1;1;1
20.01.2021 05:00;12;0;4;3
20.01.2021 06:00;36;9;6;5
20.01.2021 07:00;50;29;6;40
20.01.2021 08:00;39;19;10;34
20.01.2021 09:00;21;17;6;12
20.01.2021 10:00;22;23;3;17
20.01.2021 11:00;46;44;12;12
20.01.2021 12:00;77;77;21;17
20.01.2021 13:00;64;84;21;11
20.01.2021 14:00;72;71;11;19
20.01.2021 15:00;80;64;17;14
20.01.2021 16:00;52;68;16;17
20.01.2021 17:00;46;46;29;17
20.01.2021 18:00;35;40;15;14
20.01.2021 19:00;25;14;15;5
20.01.2021 20:00;3;10;4;5
20.01.2021 21:00;2;8;7;3
20.01.2021 22:00;2;2;2;2
20.01.2021 23:00;3;0;5;1
21.01.2021 00:00;0;0;0;1
21.01.2021 01:00;0;0;0;0
21.01.2021 02:00;0;0;0;0
21.01.2021 03:00;1;1;0;0
21.01.2021 04:00;0;0;0;1
21.01.2021 05:00;12;1;3;2
21.01.2021 06:00;18;7;5;6
21.01.2021 07:00;28;14;6;28
21.01.2021 08:00;19;8;5;24
21.01.2021 09:00;16;14;5;11
21.01.2021 10:00;21;20;3;12
21.01.2021 11:00;30;33;8;15
21.01.2021 12:00;33;41;16;20
21.01.2021 13:00;29;31;16;21
21.01.2021 14:00;42;39;12;20
21.01.2021 15:00;58;42;22;21
21.01.2021 16:00;54;53;20;26
21.01.2021 17:00;37;39;21;16
21.01.2021 18:00;18;19;28;10
21.01.2021 19:00;10;13;14;9
21.01.2021 20:00;2;7;6;7
21.01.2021 21:00;1;4;2;3
21.01.2021 22:00;2;2;2;0
21.01.2021 23:00;2;0;1;0
22.01.2021 00:00;1;0;1;0
22.01.2021 01:00;0;0;0;0
22.01.2021 02:00;0;0;0;0
22.01.2021 03:00;0;0;0;0
22.01.2021 04:00;0;0;0;0
22.01.2021 05:00;8;0;3;2
22.01.2021 06:00;28;7;5;11
22.01.2021 07:00;36;25;7;34
22.01.2021 08:00;36;21;9;28
22.01.2021 09:00;23;19;8;9
22.01.2021 10:00;17;21;5;11
22.01.2021 11:00;36;38;14;12
22.01.2021 12:00;24;35;20;18
22.01.2021 13:00;46;51;11;21
22.01.2021 14:00;61;67;26;20
22.01.2021 15:00;83;89;32;17
22.01.2021 16:00;89;81;33;32
22.01.2021 17:00;56;52;15;15
22.01.2021 18:00;25;28;16;10
22.01.2021 19:00;13;10;11;7
22.01.2021 20:00;1;5;4;8
22.01.2021 21:00;1;5;5;3
22.01.2021 22:00;3;3;0;1
22.01.2021 23:00;5;1;0;1
23.01.2021 00:00;1;0;1;0
23.01.2021 01:00;0;1;1;1
23.01.2021 02:00;1;2;1;0
23.01.2021 03:00;0;0;0;0
23.01.2021 04:00;1;2;0;1
23.01.2021 05:00;1;2;2;1
23.01.2021 06:00;0;2;1;0
23.01.2021 07:00;5;9;2;4
23.01.2021 08:00;8;12;3;6
23.01.2021 09:00;37;23;1;5
23.01.2021 10:00;40;56;6;11
23.01.2021 11:00;52;65;10;13
23.01.2021 12:00;91;92;7;19
23.01.2021 13:00;109;126;18;24
23.01.2021 14:00;122;105;14;11
23.01.2021 15:00;85;101;13;15
23.01.2021 16:00;115;78;24;15
23.01.2021 17:00;48;28;8;10
23.01.2021 18:00;19;8;7;6
23.01.2021 19:00;7;4;3;1
23.01.2021 20:00;9;3;4;8
23.01.2021 21:00;2;1;1;3
23.01.2021 22:00;1;1;2;0
23.01.2021 23:00;3;0;1;0
24.01.2021 00:00;1;1;0;1
24.01.2021 01:00;0;0;0;0
24.01.2021 02:00;0;2;0;0
24.01.2021 03:00;0;1;0;0
24.01.2021 04:00;0;0;0;1
24.01.2021 05:00;1;1;0;0
24.01.2021 06:00;0;2;0;0
24.01.2021 07:00;2;1;0;1
24.01.2021 08:00;1;0;0;1
24.01.2021 09:00;4;1;0;4
24.01.2021 10:00;1;3;0;1
24.01.2021 11:00;3;1;0;3
24.01.2021 12:00;6;0;0;6
24.01.2021 13:00;0;7;0;1
24.01.2021 14:00;7;3;0;6
24.01.2021 15:00;5;0;0;2
24.01.2021 16:00;5;4;0;8
24.01.2021 17:00;3;1;1;7
24.01.2021 18:00;1;0;1;4
24.01.2021 19:00;1;0;0;2
24.01.2021 20:00;0;0;0;0
24.01.2021 21:00;2;0;0;0
24.01.2021 22:00;2;0;0;1
24.01.2021 23:00;0;0;0;1
25.01.2021 00:00;0;0;0;0
25.01.2021 01:00;0;0;0;0
25.01.2021 02:00;0;0;0;0
25.01.2021 03:00;0;0;0;0
25.01.2021 04:00;0;0;0;1
25.01.2021 05:00;3;2;1;1
25.01.2021 06:00;12;2;0;6
25.01.2021 07:00;15;5;1;16
25.01.2021 08:00;8;4;0;12
25.01.2021 09:00;5;2;0;8
25.01.2021 10:00;0;4;0;5
25.01.2021 11:00;6;3;1;11
25.01.2021 12:00;2;2;2;12
25.01.2021 13:00;5;9;2;10
25.01.2021 14:00;15;8;9;13
25.01.2021 15:00;9;13;13;18
25.01.2021 16:00;18;13;10;10
25.01.2021 17:00;5;11;8;17
25.01.2021 18:00;4;8;13;12
25.01.2021 19:00;4;1;4;5
25.01.2021 20:00;1;4;7;0
25.01.2021 21:00;0;0;2;2
25.01.2021 22:00;2;0;2;2
25.01.2021 23:00;0;0;0;2
26.01.2021 00:00;0;0;0;0
26.01.2021 01:00;0;0;0;1
26.01.2021 02:00;0;0;0;0
26.01.2021 03:00;0;0;0;0
26.01.2021 04:00;0;0;1;1
26.01.2021 05:00;1;1;2;1
26.01.2021 06:00;7;6;6;5
26.01.2021 07:00;16;7;4;21
26.01.2021 08:00;10;5;4;22
26.01.2021 09:00;7;7;2;7
26.01.2021 10:00;5;3;0;6
26.01.2021 11:00;5;6;9;9
26.01.2021 12:00;7;13;7;9
26.01.2021 13:00;7;12;10;8
26.01.2021 14:00;14;13;7;14
26.01.2021 15:00;27;27;15;14
26.01.2021 16:00;33;24;16;10
26.01.2021 17:00;32;31;21;15
26.01.2021 18:00;13;18;14;15
26.01.2021 19:00;16;10;11;3
26.01.2021 20:00;6;6;6;5
26.01.2021 21:00;2;1;3;3
26.01.2021 22:00;3;3;1;0
26.01.2021 23:00;0;0;0;1
27.01.2021 00:00;0;1;2;0
27.01.2021 01:00;0;0;0;0
27.01.2021 02:00;0;0;0;0
27.01.2021 03:00;0;0;0;1
27.01.2021 04:00;0;0;0;1
27.01.2021 05:00;7;2;2;3
27.01.2021 06:00;17;7;9;9
27.01.2021 07:00;30;16;7;33
27.01.2021 08:00;21;5;13;21
27.01.2021 09:00;6;9;8;9
27.01.2021 10:00;8;9;3;9
27.01.2021 11:00;6;8;5;11
27.01.2021 12:00;8;7;11;14
27.01.2021 13:00;9;14;17;9
27.01.2021 14:00;17;24;9;10
27.01.2021 15:00;20;24;11;15
27.01.2021 16:00;24;24;26;19
27.01.2021 17:00;17;28;22;16
27.01.2021 18:00;7;29;17;15
27.01.2021 19:00;4;4;9;5
27.01.2021 20:00;3;6;3;9
27.01.2021 21:00;4;2;4;1
27.01.2021 22:00;3;1;2;1
27.01.2021 23:00;1;0;1;0
28.01.2021 00:00;2;0;1;1
28.01.2021 01:00;0;0;0;0
28.01.2021 02:00;0;0;0;0
28.01.2021 03:00;0;0;0;0
28.01.2021 04:00;1;0;0;1
28.01.2021 05:00;8;3;5;1
28.01.2021 06:00;26;5;7;7
28.01.2021 07:00;29;14;8;32
28.01.2021 08:00;19;10;5;14
28.01.2021 09:00;8;4;3;4
28.01.2021 10:00;4;2;0;4
28.01.2021 11:00;7;6;5;11
28.01.2021 12:00;9;11;5;12
28.01.2021 13:00;10;9;15;7
28.01.2021 14:00;8;14;11;12
28.01.2021 15:00;9;22;9;14
28.01.2021 16:00;17;36;18;10
28.01.2021 17:00;12;18;11;13
28.01.2021 18:00;7;17;12;8
28.01.2021 19:00;5;11;7;4
28.01.2021 20:00;3;5;8;6
28.01.2021 21:00;0;0;4;4
28.01.2021 22:00;2;1;1;2
28.01.2021 23:00;2;2;0;1
29.01.2021 00:00;2;0;0;1
29.01.2021 01:00;0;0;0;0
29.01.2021 02:00;0;0;0;1
29.01.2021 03:00;0;0;0;0
29.01.2021 04:00;0;0;0;0
29.01.2021 05:00;2;0;2;2
29.01.2021 06:00;12;4;8;4
29.01.2021 07:00;18;15;4;21
29.01.2021 08:00;9;5;4;14
29.01.2021 09:00;10;9;4;5
29.01.2021 10:00;10;3;3;5
29.01.2021 11:00;8;8;5;6
29.01.2021 12:00;18;8;8;4
29.01.2021 13:00;20;15;10;14
29.01.2021 14:00;23;28;14;19
29.01.2021 15:00;29;29;15;10
29.01.2021 16:00;18;28;12;18
29.01.2021 17:00;25;29;12;11
29.01.2021 18:00;22;29;10;3
29.01.2021 19:00;1;8;3;5
29.01.2021 20:00;4;4;5;2
29.01.2021 21:00;2;2;3;5
29.01.2021 22:00;1;2;0;1
29.01.2021 23:00;1;1;1;1
30.01.2021 00:00;0;2;0;1
30.01.2021 01:00;0;1;1;1
30.01.2021 02:00;0;1;0;1
30.01.2021 03:00;0;0;1;0
30.01.2021 04:00;0;0;0;0
30.01.2021 05:00;2;3;0;0
30.01.2021 06:00;2;0;2;3
30.01.2021 07:00;1;3;3;3
30.01.2021 08:00;6;4;1;3
30.01.2021 09:00;17;21;3;5
30.01.2021 10:00;16;24;5;9
30.01.2021 11:00;43;47;13;12
30.01.2021 12:00;50;51;16;19
30.01.2021 13:00;61;65;25;20
30.01.2021 14:00;57;46;8;20
30.01.2021 15:00;50;34;12;8
30.01.2021 16:00;51;40;11;8
30.01.2021 17:00;29;20;8;9
30.01.2021 18:00;15;12;3;8
30.01.2021 19:00;6;2;5;4
30.01.2021 20:00;2;4;1;4
30.01.2021 21:00;1;5;0;2
30.01.2021 22:00;2;1;2;0
30.01.2021 23:00;1;1;0;1
31.01.2021 00:00;0;0;2;0
31.01.2021 01:00;1;1;0;0
31.01.2021 02:00;0;1;0;0
31.01.2021 03:00;0;0;1;0
31.01.2021 04:00;0;0;0;0
31.01.2021 05:00;1;0;0;0
31.01.2021 06:00;2;0;0;2
31.01.2021 07:00;1;1;0;3
31.01.2021 08:00;9;6;0;2
31.01.2021 09:00;9;16;2;4
31.01.2021 10:00;33;53;0;6
31.01.2021 11:00;44;105;7;6
31.01.2021 12:00;85;115;3;13
31.01.2021 13:00;107;127;4;32
31.01.2021 14:00;140;98;13;18
31.01.2021 15:00;60;64;10;12
31.01.2021 16:00;74;57;13;7
31.01.2021 17:00;39;22;6;6
31.01.2021 18:00;12;7;8;5
31.01.2021 19:00;6;2;7;6
31.01.2021 20:00;2;0;4;3
31.01.2021 21:00;1;1;5;0
31.01.2021 22:00;2;1;0;1
31.01.2021 23:00;3;0;1;0
01.02.2021 00:00;0;0;0;0
01.02.2021 01:00;0;0;2;0
01.02.2021 02:00;0;0;0;0
01.02.2021 03:00;0;0;0;0
01.02.2021 04:00;0;0;0;3
01.02.2021 05:00;7;2;2;4
01.02.2021 06:00;27;4;8;11
01.02.2021 07:00;33;35;7;39
01.02.2021 08:00;32;10;14;21
01.02.2021 09:00;12;10;6;15
01.02.2021 10:00;14;16;3;8
01.02.2021 11:00;12;20;7;7
01.02.2021 12:00;17;18;6;6
01.02.2021 13:00;31;31;10;10
01.02.2021 14:00;19;40;15;12
01.02.2021 15:00;24;30;25;15
01.02.2021 16:00;39;52;17;19
01.02.2021 17:00;28;33;23;29
01.02.2021 18:00;15;22;19;14
01.02.2021 19:00;7;15;6;4
01.02.2021 20:00;2;4;7;1
01.02.2021 21:00;2;2;3;1
01.02.2021 22:00;0;1;3;0
01.02.2021 23:00;0;1;0;0
02.02.2021 00:00;0;0;1;0
02.02.2021 01:00;0;0;0;0
02.02.2021 02:00;0;0;0;0
02.02.2021 03:00;0;0;0;0
02.02.2021 04:00;0;0;0;1
02.02.2021 05:00;7;1;2;7
02.02.2021 06:00;33;11;4;10
02.02.2021 07:00;34;19;8;30
02.02.2021 08:00;36;8;5;25
02.02.2021 09:00;11;13;5;6
02.02.2021 10:00;2;6;1;3
02.02.2021 11:00;3;3;9;8
02.02.2021 12:00;4;3;6;7
02.02.2021 13:00;7;8;14;11
02.02.2021 14:00;9;12;10;11
02.02.2021 15:00;13;26;22;15
02.02.2021 16:00;30;37;23;20
02.02.2021 17:00;18;47;26;17
02.02.2021 18:00;14;21;13;11
02.02.2021 19:00;4;6;11;9
02.02.2021 20:00;3;4;3;5
02.02.2021 21:00;1;6;3;4
02.02.2021 22:00;3;3;1;1
02.02.2021 23:00;0;1;1;1
03.02.2021 00:00;1;0;0;0
03.02.2021 01:00;2;0;0;0
03.02.2021 02:00;0;0;1;2
03.02.2021 03:00;0;0;0;0
03.02.2021 04:00;0;0;0;1
03.02.2021 05:00;9;1;3;3
03.02.2021 06:00;26;8;7;15
03.02.2021 07:00;36;15;7;36
03.02.2021 08:00;18;6;9;30
03.02.2021 09:00;14;9;4;12
03.02.2021 10:00;2;6;2;6
03.02.2021 11:00;6;3;5;13
03.02.2021 12:00;7;14;6;12
03.02.2021 13:00;12;10;6;10
03.02.2021 14:00;22;18;11;13
03.02.2021 15:00;12;17;13;12
03.02.2021 16:00;12;38;23;15
03.02.2021 17:00;19;24;17;15
03.02.2021 18:00;11;17;12;12
03.02.2021 19:00;5;6;2;3
03.02.2021 20:00;3;5;10;4
03.02.2021 21:00;1;3;3;1
03.02.2021 22:00;4;0;1;0
03.02.2021 23:00;0;1;0;1
04.02.2021 00:00;0;0;0;0
04.02.2021 01:00;0;0;1;0
04.02.2021 02:00;0;0;0;0
04.02.2021 03:00;0;1;0;0
04.02.2021 04:00;0;0;0;0
04.02.2021 05:00;10;4;2;2
04.02.2021 06:00;28;10;4;13
04.02.2021 07:00;42;21;10;33
04.02.2021 08:00;42;16;0;29
04.02.2021 09:00;26;24;1;8
04.02.2021 10:00;26;24;0;18
04.02.2021 11:00;35;44;0;20
04.02.2021 12:00;58;49;0;23
04.02.2021 13:00;68;69;1;19
04.02.2021 14:00;42;65;12;27
04.02.2021 15:00;54;105;35;29
04.02.2021 16:00;70;91;30;27
04.02.2021 17:00;71;81;33;27
04.02.2021 18:00;39;47;27;20
04.02.2021 19:00;15;19;15;4
04.02.2021 20:00;10;6;7;9
04.02.2021 21:00;3;4;3;4
04.02.2021 22:00;2;4;0;2
04.02.2021 23:00;0;0;0;1
05.02.2021 00:00;0;3;1;0
05.02.2021 01:00;0;0;2;0
05.02.2021 02:00;0;0;0;0
05.02.2021 03:00;0;1;0;1
05.02.2021 04:00;1;0;0;0
05.02.2021 05:00;3;2;2;4
05.02.2021 06:00;22;10;9;9
05.02.2021 07:00;28;21;13;33
05.02.2021 08:00;30;18;9;30
05.02.2021 09:00;12;16;10;18
05.02.2021 10:00;15;30;4;11
05.02.2021 11:00;22;43;11;15
05.02.2021 12:00;38;31;14;10
05.02.2021 13:00;33;47;26;19
05.02.2021 14:00;65;86;19;17
05.02.2021 15:00;106;108;29;29
05.02.2021 16:00;96;89;25;30
05.02.2021 17:00;91;51;32;24
05.02.2021 18:00;21;26;17;23
05.02.2021 19:00;14;10;7;12
05.02.2021 20:00;12;6;11;8
05.02.2021 21:00;5;8;1;7
05.02.2021 22:00;3;2;2;0
05.02.2021 23:00;0;4;1;1
06.02.2021 00:00;2;1;0;1
06.02.2021 01:00;0;2;0;2
06.02.2021 02:00;0;0;1;0
06.02.2021 03:00;0;0;0;0
06.02.2021 04:00;1;0;0;1
06.02.2021 05:00;3;2;1;1